Location: Wildcat Hills Observatory
(41.6350°N, 103.6812°W)
Time: 18:55:18
(UTC-07:00)

Cosmos 1634 Rocket - Visible Passes

Search period start: 25 February 2018 00:00
Search period end: 07 March 2018 00:00
Orbit: 959 x 993 km, 82.9° (Epoch: 24 February)

Date Brightness Start Highest point End Pass type
(mag) Time Alt. Az. Time Alt. Az. Time Alt. Az.
25 Feb 4.1 19:00:01 10° N 19:06:01 50° ENE 19:11:58 10° SSE visible
25 Feb 6.0 20:46:12 10° NNW 20:50:59 24° W 20:55:46 10° SW visible
26 Feb 3.9 19:25:27 10° N 19:31:39 89° E 19:37:49 10° S visible
26 Feb 6.7 21:13:34 10° NW 21:16:04 13° WNW 21:18:34 10° WSW visible
27 Feb 4.9 18:06:30 10° NNE 18:11:25 24° ENE 18:16:19 10° ESE visible
27 Feb 4.7 19:51:11 10° NNW 19:57:06 51° W 20:03:02 10° SSW visible
28 Feb 4.3 18:31:26 10° N 18:37:17 43° ENE 18:43:06 10° SSE visible
28 Feb 5.8 20:17:18 10° NNW 20:22:24 28° W 20:27:31 10° SW visible
01 Mar 3.9 18:56:46 10° N 19:02:57 78° E 19:09:08 10° S visible
01 Mar 6.7 20:44:12 10° NW 20:47:31 15° W 20:50:51 10° WSW visible
02 Mar 4.5 19:22:25 10° NNW 19:28:28 59° W 19:34:30 10° S visible
03 Mar 5.7 19:48:25 10° NNW 19:53:48 32° W 19:59:10 10° SSW visible
04 Mar 7.4 05:52:44 10° E 05:54:12 11° ENE 05:55:39 10° ENE visible
04 Mar 4.0 18:28:06 10° N 18:34:16 67° E 18:40:25 10° SSE visible
04 Mar 6.6 20:15:02 10° NW 20:18:58 18° W 20:22:54 10° WSW visible
05 Mar 4.4 18:53:40 10° NNW 18:59:48 69° W 19:05:56 10° S visible
06 Mar 5.5 19:19:34 10° NNW 19:25:11 38° W 19:30:48 10° SSW visible
